Clinton, AR

4:32 AM CST on January 24, 2018 (GMT -0600)
Clinton

Weather History for KCCA - December, 2012

Change the Weather History Date:

Monday, December 10, 2012

  Actual Average (KBVX) Record (KBVX)
Temperature  
Mean Temperature 36 °F -  
Max Temperature 46 °F 52 °F 73 °F (1970)
Min Temperature 24 °F 31 °F 9 °F (1978)
Degree Days  
Heating Degree Days 29    
Moisture  
Dew Point 25 °F    
Average Humidity 70    
Maximum Humidity 93    
Minimum Humidity 52    
Precipitation  
Precipitation 0.00 in - - ()
Sea Level Pressure  
Sea Level Pressure 30.02 in    
Wind  
Wind Speed 7 mph (NW)    
Max Wind Speed 15 mph    
Max Gust Speed 23 mph    
Visibility 10 miles    
Events      
Averages and records for this station are not official NWS values.
T = Trace of Precipitation, MM = Missing Value Source: NWS Daily Summary

Daily Weather History Graph

Daily Weather History Graph

Search for Another Location

Airport or City:

Trip Planner

Search our weather history database for the weather conditions in past years. The results will help you decide how hot, cold, wet, or windy it might be!

Date:

Astronomy

Dec. 10, 2012 Rise Set
Actual Time 7:08 AM CST 4:56 PM CST
Civil Twilight 6:40 AM CST 5:25 PM CST
Nautical Twilight 6:08 AM CST 5:57 PM CST
Astronomical Twilight 5:37 AM CST 6:28 PM CST
Moon 3:56 AM CST (12/10) 2:43 PM CST (12/10)
Length of Visible Light 10h 44m
Length of Day
9h 48m
Waning Crescent, 10% of the Moon is Illuminated
Dec 10
Waning Crescent
Dec 13
New
Dec 19
First Quarter
Dec 28
Full
Jan 4
Last Quarter

Hourly Weather History & Observations

Time (CST) Temp. Windchill Dew Point Humidity Pressure Visibility Wind Dir Wind Speed Gust Speed Precip Events Conditions
12:15 AM 46.4 °F 44.3 °F 37.4 °F 71% 29.92 in 10.0 mi NNW 4.6 mph - N/A   Overcast
12:35 AM 46.4 °F 40.4 °F 37.4 °F 71% 29.92 in 10.0 mi NW 13.8 mph 17.3 mph N/A   Overcast
12:55 AM 44.6 °F - 35.6 °F 71% 29.91 in 10.0 mi Calm Calm - N/A   Overcast
1:15 AM 44.6 °F 39.7 °F 33.8 °F 66% 29.92 in 10.0 mi NNW 9.2 mph 20.7 mph N/A   Mostly Cloudy
1:35 AM 42.8 °F 38.6 °F 33.8 °F 70% 29.92 in 10.0 mi NNW 6.9 mph - N/A   Clear
1:55 AM 42.8 °F - 33.8 °F 70% 29.91 in 10.0 mi Calm Calm - N/A   Partly Cloudy
2:15 AM 42.8 °F 38.6 °F 33.8 °F 70% 29.92 in 10.0 mi NNW 6.9 mph - N/A   Mostly Cloudy
2:35 AM 39.2 °F 34.2 °F 32.0 °F 75% 29.93 in 10.0 mi NNW 6.9 mph 20.7 mph N/A   Mostly Cloudy
2:55 AM 37.4 °F 29.8 °F 30.2 °F 75% 29.93 in 10.0 mi NW 11.5 mph 16.1 mph N/A   Clear
3:15 AM 37.4 °F 31.4 °F 30.2 °F 75% 29.93 in 10.0 mi NW 8.1 mph - N/A   Clear
3:35 AM 35.6 °F 31.7 °F 28.4 °F 75% 29.94 in 10.0 mi NNW 4.6 mph 19.6 mph N/A   Clear
3:55 AM 35.6 °F 31.7 °F 26.6 °F 70% 29.93 in 10.0 mi NNW 4.6 mph - N/A   Clear
4:15 AM 35.6 °F 30.7 °F 26.6 °F 70% 29.94 in 10.0 mi NNW 5.8 mph - N/A   Scattered Clouds
4:35 AM 33.8 °F 28.6 °F 26.6 °F 75% 29.95 in 10.0 mi NNW 5.8 mph - N/A   Scattered Clouds
4:55 AM 33.8 °F 27.0 °F 26.6 °F 75% 29.95 in 10.0 mi NW 8.1 mph - N/A   Mostly Cloudy
5:15 AM 33.8 °F 28.6 °F 23.0 °F 65% 29.96 in 10.0 mi NW 5.8 mph - N/A   Scattered Clouds
5:35 AM 33.8 °F 24.8 °F 23.0 °F 65% 29.97 in 10.0 mi WNW 12.7 mph 21.9 mph N/A   Scattered Clouds
5:55 AM 33.8 °F 28.6 °F 23.0 °F 65% 29.97 in 10.0 mi NW 5.8 mph - N/A   Mostly Cloudy
6:15 AM 33.8 °F 25.8 °F 23.0 °F 65% 29.99 in 10.0 mi NW 10.4 mph 17.3 mph N/A   Mostly Cloudy
6:35 AM 33.8 °F 27.0 °F 23.0 °F 65% 30.00 in 10.0 mi NW 8.1 mph - N/A   Scattered Clouds
6:55 AM 33.8 °F 25.3 °F 23.0 °F 65% 30.01 in 10.0 mi WNW 11.5 mph 16.1 mph N/A   Mostly Cloudy
7:15 AM 33.8 °F 24.8 °F 23.0 °F 65% 30.01 in 10.0 mi WNW 12.7 mph 17.3 mph N/A   Partly Cloudy
7:35 AM 33.8 °F 27.0 °F 23.0 °F 65% 30.01 in 10.0 mi WNW 8.1 mph - N/A   Partly Cloudy
7:55 AM 33.8 °F 30.8 °F 23.0 °F 65% 30.02 in 10.0 mi NNW 3.5 mph 17.3 mph N/A   Clear
8:35 AM 32.0 °F 24.2 °F 23.0 °F 69% 30.03 in 10.0 mi NW 9.2 mph - N/A   Partly Cloudy
8:55 AM 32.0 °F 23.0 °F 23.0 °F 69% 30.02 in 10.0 mi NNW 11.5 mph 16.1 mph N/A   Mostly Cloudy
9:15 AM 32.0 °F 23.0 °F 23.0 °F 69% 30.02 in 10.0 mi NW 11.5 mph 20.7 mph N/A   Mostly Cloudy
9:35 AM 32.0 °F 21.6 °F 23.0 °F 69% 30.04 in 10.0 mi NW 15.0 mph 23.0 mph N/A   Mostly Cloudy
9:55 AM 32.0 °F 22.5 °F 23.0 °F 69% 30.04 in 10.0 mi NW 12.7 mph 19.6 mph N/A   Overcast
10:15 AM 32.0 °F 24.2 °F 21.2 °F 64% 30.05 in 10.0 mi NW 9.2 mph - N/A   Overcast
10:35 AM 33.8 °F 27.0 °F 23.0 °F 65% 30.04 in 10.0 mi NW 8.1 mph - N/A   Mostly Cloudy
11:15 AM 35.6 °F 27.1 °F 23.0 °F 60% 30.03 in 10.0 mi NNW 12.7 mph 19.6 mph N/A   Partly Cloudy
11:35 AM 35.6 °F 27.5 °F 23.0 °F 60% 30.03 in 10.0 mi NW 11.5 mph 20.7 mph N/A   Clear
11:55 AM 37.4 °F 28.9 °F 23.0 °F 56% 30.02 in 10.0 mi NW 13.8 mph 18.4 mph N/A   Clear
12:15 PM 37.4 °F 30.3 °F 23.0 °F 56% 30.01 in 10.0 mi NNW 10.4 mph - N/A   Clear
12:35 PM 37.4 °F 28.9 °F 23.0 °F 56% 30.01 in 10.0 mi NW 13.8 mph 19.6 mph N/A   Clear
12:55 PM 37.4 °F 29.8 °F 23.0 °F 56% 29.99 in 10.0 mi WNW 11.5 mph 19.6 mph N/A   Clear
1:15 PM 37.4 °F 31.4 °F 23.0 °F 56% 29.99 in 10.0 mi NW 8.1 mph 16.1 mph N/A   Clear
1:35 PM 37.4 °F 30.3 °F 23.0 °F 56% 30.00 in 10.0 mi NW 10.4 mph 18.4 mph N/A   Clear
1:55 PM 39.2 °F 32.0 °F 23.0 °F 52% 30.00 in 10.0 mi WNW 11.5 mph - N/A   Clear
2:15 PM 39.2 °F 31.6 °F 23.0 °F 52% 30.01 in 10.0 mi NW 12.7 mph - N/A   Clear
3:15 PM 39.2 °F 33.0 °F 23.0 °F 52% 30.01 in 10.0 mi NW 9.2 mph - N/A   Clear
3:35 PM 37.4 °F 29.3 °F 23.0 °F 56% 30.02 in 10.0 mi WNW 12.7 mph - N/A   Clear
3:55 PM 37.4 °F 31.4 °F 23.0 °F 56% 30.02 in 10.0 mi NW 8.1 mph - N/A   Clear
4:15 PM 37.4 °F 30.8 °F 23.0 °F 56% 30.04 in 10.0 mi NW 9.2 mph 16.1 mph N/A   Clear
4:35 PM 35.6 °F 28.6 °F 21.2 °F 56% 30.03 in 10.0 mi NW 9.2 mph - N/A   Clear
4:55 PM 35.6 °F 29.9 °F 21.2 °F 56% 30.03 in 10.0 mi NNW 6.9 mph - N/A   Clear
5:15 PM 33.8 °F - 23.0 °F 65% 30.03 in 10.0 mi Calm Calm - N/A   Clear
5:35 PM 33.8 °F - 23.0 °F 65% 30.04 in 10.0 mi Calm Calm - N/A   Clear
5:55 PM 32.0 °F - 24.8 °F 75% 30.05 in 10.0 mi Calm Calm - N/A   Clear
6:15 PM 32.0 °F - 24.8 °F 75% 30.06 in 10.0 mi Calm Calm - N/A   Clear
6:35 PM 32.0 °F - 24.8 °F 75% 30.06 in 10.0 mi Calm Calm - N/A   Clear
6:55 PM 32.0 °F - 26.6 °F 80% 30.07 in 10.0 mi Calm Calm - N/A   Clear
7:15 PM 30.2 °F - 26.6 °F 86% 30.08 in 10.0 mi Calm Calm - N/A   Clear
7:35 PM 30.2 °F - 26.6 °F 86% 30.08 in 10.0 mi Calm Calm - N/A   Clear
7:55 PM 30.2 °F - 24.8 °F 80% 30.08 in 10.0 mi Calm Calm - N/A   Clear
8:15 PM 28.4 °F - 24.8 °F 86% 30.09 in 10.0 mi Calm Calm - N/A   Clear
8:35 PM 28.4 °F - 24.8 °F 86% 30.09 in 10.0 mi Calm Calm - N/A   Clear
8:55 PM 28.4 °F - 24.8 °F 86% 30.09 in 10.0 mi Calm Calm - N/A   Clear
9:15 PM 28.4 °F - 24.8 °F 86% 30.10 in 10.0 mi Calm Calm - N/A   Clear
9:35 PM 26.6 °F - 24.8 °F 93% 30.10 in 10.0 mi Calm Calm - N/A   Clear
9:55 PM 26.6 °F - 24.8 °F 93% 30.10 in 10.0 mi Calm Calm - N/A   Clear
10:15 PM 26.6 °F - 24.8 °F 93% 30.10 in 8.0 mi Calm Calm - N/A   Clear
10:35 PM 26.6 °F - 24.8 °F 93% 30.11 in 10.0 mi Calm Calm - N/A   Clear
10:55 PM 26.6 °F - 23.0 °F 86% 30.11 in 8.0 mi Calm Calm - N/A   Clear
11:35 PM 26.6 °F - 23.0 °F 86% 30.13 in 9.0 mi Calm Calm - N/A   Clear
11:55 PM 24.8 °F - 23.0 °F 93% 30.13 in 8.0 mi Calm Calm - N/A   Clear